Latest Weather Observations for Gelantipy

IDV60801

Issued at 6:35 pm EDT Wednesday 22 October 2014 (issued every 30 minutes, with the page automatically refreshed every 10 minutes)

About weather observations | Map of weather stations | Latest weather observations for VIC | Other Formats
Station Details ID: 084142 Name: GELANTIPY Lat: -37.22 Lon: 148.26 Height: 755.0 m
Data from the previous 72 hours. | See also: Recent months at Gelantipy
Date/Time
EDT
Temp
°C
App
Temp
°C
Dew
Point
Rel
Hum
%
Delta-T
°C
Wind Press
QNH
hPa
Press
MSL
hPa
Rain
since 9 am
mm
Dir
 
Spd
km/h
Gust
km/h
Spd
kts
Gust
kts
22/06:30pm 22.8 22.3 12.1 51 6.3 SSE 6 11 3 6 1018.9 1018.2 0.0
22/06:00pm 23.3 22.1 11.7 48 6.8 SSE 9 13 5 7 1018.9 1018.2 0.0
22/05:30pm 23.6 22.1 10.6 44 7.4 S 9 15 5 8 1019.0 1018.3 0.0
22/05:00pm 23.7 21.6 11.1 45 7.3 S 13 17 7 9 1019.0 1018.3 0.0
22/04:30pm 23.8 21.5 10.5 43 7.6 S 13 19 7 10 1019.1 1018.5 0.0
22/04:00pm 24.0 22.2 11.0 44 7.5 S 11 17 6 9 1019.3 1018.7 0.0
22/03:30pm 24.2 22.0 10.8 43 7.7 S 13 22 7 12 1019.6 1019.0 0.0
22/03:00pm 24.3 23.1 11.6 45 7.4 SSW 9 17 5 9 1019.7 1019.1 0.0
22/02:30pm 24.0 21.4 7.6 35 8.9 SSW 11 20 6 11 1020.1 1019.4 0.0
22/02:00pm 23.6 22.2 11.0 45 7.3 SSE 9 15 5 8 1020.5 1019.9 0.0
22/01:30pm 23.2 22.0 11.6 48 6.7 W 9 20 5 11 1020.8 1020.2 0.0
22/01:00pm 22.4 21.3 13.2 56 5.5 NE 11 17 6 9 1020.8 1020.2 0.0
22/12:30pm 21.4 19.7 12.5 57 5.2 NNE 13 17 7 9 1021.3 1020.6 0.0
22/12:00pm 20.6 18.9 12.3 59 4.8 NNE 13 17 7 9 1021.7 1021.1 0.0
22/11:30am 19.9 18.7 14.0 69 3.5 NNE 13 17 7 9 1022.0 1021.4 0.0
22/11:00am 18.5 17.2 13.6 73 2.9 N 13 19 7 10 1022.4 1021.8 0.0
22/10:30am 17.3 15.5 13.2 77 2.4 NNE 15 17 8 9 1022.7 1022.1 0.0
22/10:00am 15.9 13.7 12.1 78 2.1 N 15 19 8 10 1023.0 1022.4 0.0
22/09:30am 14.0 10.6 10.6 80 1.9 N 19 22 10 12 1023.1 1022.5 0.0
22/09:00am 12.8 8.9 9.6 81 1.7 NNE 20 24 11 13 1023.1 1022.5 0.0
22/08:30am 12.2 8.5 9.6 84 1.4 NNE 19 24 10 13 1023.3 1022.7 0.0
22/08:00am 11.3 7.9 9.0 86 1.2 NNE 17 24 9 13 1023.3 1022.7 0.0
22/07:30am 10.3 6.7 8.4 88 1.0 NNE 17 24 9 13 1023.3 1022.7 0.0
22/07:00am 9.1 5.0 7.7 91 0.7 NNE 19 24 10 13 1023.1 1022.5 0.0
22/06:30am 8.4 4.5 7.3 93 0.5 NNE 17 22 9 12 1023.1 1022.5 0.0
22/06:00am 8.4 4.0 7.3 93 0.5 NNE 20 26 11 14 1022.7 1022.1 0.0
22/05:30am 8.5 4.1 7.3 92 0.6 NNE 20 26 11 14 1022.5 1022.0 0.0
22/05:00am 8.7 3.9 7.5 92 0.6 NNE 22 30 12 16 1022.7 1022.1 0.0
22/04:30am 8.7 3.9 7.3 91 0.7 NNE 22 30 12 16 1022.9 1022.3 0.0
22/04:00am 8.9 4.1 7.5 91 0.7 NNE 22 30 12 16 1023.1 1022.5 0.0
22/03:30am 9.2 4.1 7.6 90 0.8 NNE 24 30 13 16 1023.4 1022.8 0.0
22/03:00am 9.3 4.2 7.7 90 0.8 NNE 24 32 13 17 1023.7 1023.2 0.0
22/02:30am 9.8 5.1 7.9 88 1.0 NNE 22 30 12 16 1024.1 1023.5 0.0
22/02:00am 10.1 5.1 8.0 87 1.1 NNE 24 30 13 16 1024.4 1023.8 0.0
22/01:30am 10.4 5.0 8.2 86 1.1 NNE 26 32 14 17 1024.6 1024.0 0.0
22/01:00am 10.6 5.6 8.2 85 1.2 NNE 24 30 13 16 1025.1 1024.6 0.0
22/12:30am 10.6 6.0 8.2 85 1.2 NNE 22 26 12 14 1025.6 1025.0 0.0
22/12:00am 10.9 6.0 8.3 84 1.3 NNE 24 28 13 15 1025.8 1025.2 0.0
 
Date/Time
EDT
Temp
°C
App
Temp
°C
Dew
Point
Rel
Hum
%
Delta-T
°C
Wind Press
QNH
hPa
Press
MSL
hPa
Rain
since 9 am
mm
Dir
 
Spd
km/h
Gust
km/h
Spd
kts
Gust
kts
21/11:30pm 10.8 6.6 8.4 85 1.2 NNE 20 24 11 13 1025.9 1025.3 0.0
21/11:00pm 11.7 6.8 8.6 81 1.6 N 24 28 13 15 1026.0 1025.5 0.0
21/10:30pm 12.0 7.9 8.8 81 1.7 NNE 20 26 11 14 1026.2 1025.7 0.0
21/10:00pm 12.3 8.5 9.0 80 1.7 N 19 22 10 12 1026.5 1026.0 0.0
21/09:30pm 12.7 9.3 9.2 79 1.8 N 17 20 9 11 1026.5 1026.0 0.0
21/09:00pm 12.7 9.7 9.2 79 1.8 N 15 17 8 9 1026.3 1025.8 0.0
21/08:30pm 13.6 11.0 9.3 75 2.3 NNE 13 17 7 9 1026.1 1025.6 0.0
21/08:00pm 15.1 11.8 9.5 69 3.0 N 17 19 9 10 1026.1 1025.6 0.0
21/07:30pm 14.6 12.5 9.8 73 2.6 N 11 13 6 7 1026.0 1025.5 0.0
21/07:00pm 16.2 14.7 10.5 69 3.1 N 9 11 5 6 1025.8 1025.2 0.0
21/06:30pm 17.7 16.3 11.0 65 3.8 NNE 9 11 5 6 1025.7 1025.1 0.0
21/06:00pm 18.3 16.6 9.9 58 4.6 NNE 9 13 5 7 1025.7 1025.1 0.0
21/05:30pm 18.6 16.9 9.7 56 4.9 NE 9 13 5 7 1025.9 1025.3 0.0
21/05:00pm 18.6 16.9 9.9 57 4.8 NE 9 13 5 7 1025.9 1025.3 0.0
21/04:30pm 18.5 16.7 9.6 56 4.9 NNE 9 13 5 7 1026.1 1025.6 0.0
21/04:00pm 18.4 16.4 10.0 58 4.6 NNE 11 19 6 10 1026.2 1025.7 0.0
21/03:30pm 18.2 16.0 10.8 62 4.1 NNE 13 17 7 9 1026.4 1025.9 0.0
21/03:00pm 17.7 15.0 10.3 62 4.1 NNE 15 19 8 10 1026.8 1026.3 0.0
21/02:30pm 17.2 13.8 10.6 65 3.7 N 19 24 10 13 1027.2 1026.7 0.0
21/02:00pm 16.7 13.1 9.9 64 3.7 NNE 19 26 10 14 1027.6 1027.1 0.0
21/01:30pm 16.0 12.2 9.9 67 3.3 NNE 20 30 11 16 1027.9 1027.4 0.0
21/01:00pm 15.5 11.4 10.1 70 2.9 NNE 22 26 12 14 1028.4 1027.9 0.0
21/12:30pm 15.0 10.5 10.0 72 2.7 NNE 24 30 13 16 1028.7 1028.2 0.0
21/12:00pm 14.2 9.4 8.8 70 2.8 NNE 24 35 13 19 1028.9 1028.4 0.0
21/11:30am 13.5 8.2 8.6 72 2.6 NNE 26 35 14 19 1029.1 1028.6 0.0
21/11:00am 13.0 7.2 8.1 72 2.5 NNE 28 39 15 21 1029.2 1028.7 0.0
21/10:30am 12.8 7.6 8.9 77 2.0 NNE 26 35 14 19 1029.4 1029.0 0.0
21/10:00am 11.9 5.7 7.8 76 2.1 NNE 30 39 16 21 1029.3 1028.8 0.0
21/09:30am 11.5 5.6 7.4 76 2.1 NNE 28 37 15 20 1029.3 1028.8 0.0
21/09:00am 10.7 4.4 7.2 79 1.7 NNE 30 41 16 22 1029.0 1028.5 0.2
21/08:30am 10.1 3.7 7.0 81 1.5 NNE 30 41 16 22 1028.9 1028.4 0.2
21/08:00am 9.2 2.1 6.3 82 1.4 NNE 33 43 18 23 1028.7 1028.2 0.2
21/07:30am 8.6 1.6 6.1 84 1.2 NNE 32 39 17 21 1028.4 1027.9 0.2
21/07:00am 7.8 1.5 5.6 86 1.0 NNE 28 37 15 20 1028.2 1027.8 0.2
21/06:30am 7.1 0.4 5.4 89 0.8 NNE 30 37 16 20 1028.0 1027.5 0.2
21/06:00am 6.9 0.5 5.4 90 0.7 NNE 28 35 15 19 1027.8 1027.3 0.2
21/05:30am 7.0 0.7 5.5 90 0.7 NNE 28 37 15 20 1027.7 1027.2 0.2
21/05:00am 6.9 1.3 5.4 90 0.7 NNE 24 35 13 19 1027.8 1027.3 0.2
21/04:30am 6.8 1.2 5.4 91 0.6 NNE 24 32 13 17 1027.9 1027.4 0.2
21/04:00am 6.8 1.6 5.4 91 0.6 NNE 22 32 12 17 1028.1 1027.6 0.2
21/03:30am 7.1 1.5 5.4 89 0.8 NNE 24 32 13 17 1028.2 1027.8 0.2
21/03:00am 7.2 1.6 5.5 89 0.8 NNE 24 33 13 18 1028.7 1028.2 0.2
21/02:30am 7.4 1.8 5.5 88 0.9 NNE 24 37 13 20 1028.7 1028.2 0.2
21/02:00am 7.3 2.5 5.4 88 0.9 NNE 20 33 11 18 1029.1 1028.6 0.2
21/01:30am 7.5 1.9 5.5 87 0.9 NE 24 32 13 17 1029.4 1029.0 0.2
21/01:00am 7.9 2.7 5.7 86 1.0 NE 22 33 12 18 1029.6 1029.2 0.2
21/12:30am 7.9 2.7 5.7 86 1.0 NNE 22 32 12 17 1029.9 1029.4 0.2
21/12:00am 8.1 3.9 5.9 86 1.0 NE 17 28 9 15 1030.2 1029.7 0.2
 
Date/Time
EDT
Temp
°C
App
Temp
°C
Dew
Point
Rel
Hum
%
Delta-T
°C
Wind Press
QNH
hPa
Press
MSL
hPa
Rain
since 9 am
mm
Dir
 
Spd
km/h
Gust
km/h
Spd
kts
Gust
kts
20/11:30pm 8.5 4.4 6.0 84 1.2 NE 17 24 9 13 1030.2 1029.7 0.2
20/11:00pm 8.6 4.1 6.2 85 1.1 NE 19 28 10 15 1030.1 1029.6 0.2
20/10:30pm 8.8 4.4 6.4 85 1.2 NE 19 26 10 14 1030.1 1029.6 0.2
20/10:00pm 8.6 7.9 7.1 90 0.7 CALM 0 0 0 0 1030.2 1029.7 0.2
20/09:30pm 8.7 8.0 7.0 89 0.8 CALM 0 0 0 0 1030.3 1029.8 0.2
20/09:00pm 8.7 7.2 7.0 89 0.8 SW 4 7 2 4 1030.3 1029.8 0.2
20/08:30pm 8.8 7.0 7.3 90 0.7 SW 6 9 3 5 1030.0 1029.5 0.2
20/08:00pm 9.3 7.3 7.1 86 1.1 SSW 7 9 4 5 1029.6 1029.2 0.2
20/07:30pm 9.5 7.1 7.1 85 1.2 S 9 13 5 7 1029.5 1029.1 0.2
20/07:00pm 10.2 8.2 7.3 82 1.4 S 7 13 4 7 1029.2 1028.7 0.2
20/06:30pm 11.2 9.0 7.9 80 1.7 S 9 15 5 8 1029.0 1028.5 0.2
20/06:00pm 12.0 9.9 8.3 78 1.9 SSW 9 15 5 8 1028.9 1028.4 0.2
20/05:30pm 13.2 10.8 8.7 74 2.4 S 11 17 6 9 1028.8 1028.3 0.2
20/05:00pm 14.8 13.1 8.3 65 3.4 NNW 7 13 4 7 1028.7 1028.2 0.2
20/04:30pm 14.3 11.9 7.1 62 3.7 NNW 9 15 5 8 1028.6 1028.1 0.2
20/04:00pm 14.2 11.8 6.8 61 3.7 NW 9 17 5 9 1028.7 1028.2 0.2
20/03:30pm 12.9 10.8 6.5 65 3.2 ENE 7 13 4 7 1028.9 1028.4 0.2
20/03:00pm 13.1 10.0 7.1 67 3.0 NNE 13 17 7 9 1029.2 1028.7 0.2
20/02:30pm 12.7 9.0 6.3 65 3.2 NE 15 20 8 11 1029.4 1029.0 0.2
20/02:00pm 12.1 8.3 7.6 74 2.3 N 17 24 9 13 1029.9 1029.4 0.2
20/01:30pm 11.1 7.4 6.3 72 2.4 N 15 22 8 12 1030.2 1029.7 0.2
20/01:00pm 10.5 7.6 6.3 75 2.0 NE 11 15 6 8 1030.5 1030.1 0.2
20/12:30pm 10.4 7.6 5.2 70 2.5 E 9 13 5 7 1030.7 1030.3 0.2
20/12:00pm 9.5 6.0 5.5 76 1.9 E 13 20 7 11 1031.0 1030.6 0.2
20/11:30am 8.3 4.0 5.4 82 1.4 E 17 20 9 11 1031.4 1030.9 0.2
20/11:00am 8.8 5.4 6.1 83 1.3 SE 13 19 7 10 1031.4 1030.9 0.2
20/10:30am 8.0 5.2 6.8 92 0.6 ESE 11 17 6 9 1031.5 1031.0 0.2
20/10:00am 6.8 3.8 6.2 96 0.3 SE 11 17 6 9 1031.3 1030.8 0.2
20/09:30am 6.7 4.5 6.0 95 0.3 S 7 11 4 6 1030.8 1030.4 0.0
20/09:00am 6.5 4.5 6.2 98 0.1 S 6 9 3 5 1030.6 1030.2 1.8
20/08:30am 5.8 3.1 5.5 98 0.1 S 9 13 5 7 1030.2 1029.7 1.8
20/08:00am 5.7 3.3 5.3 97 0.2 S 7 11 4 6 1030.1 1029.6 1.8
20/07:30am 5.5 2.3 5.1 97 0.2 SSE 11 15 6 8 1029.6 1029.2 1.6
20/07:00am 5.9 3.2 5.6 98 0.1 SSW 9 13 5 7 1029.4 1029.0 1.4
20/06:30am 5.8 3.1 5.5 98 0.1 SSW 9 15 5 8 1029.2 1028.7 1.4
20/06:00am 5.9 3.2 5.8 99 0.0 SSW 9 15 5 8 1028.9 1028.4 1.4
20/05:30am 6.0 3.0 6.0 100 0.0 S 11 17 6 9 1028.7 1028.2 1.4
20/05:00am 6.0 1.9 6.0 100 0.0 SSW 17 24 9 13 1028.4 1027.9 1.4
20/04:30am 6.1 2.7 6.1 100 0.0 S 13 19 7 10 1028.2 1027.8 1.4
20/04:00am 6.1 2.4 6.1 100 0.0 S 15 26 8 14 1028.1 1027.6 1.4
20/03:30am 6.5 2.5 6.5 100 0.0 S 17 30 9 16 1028.1 1027.6 1.2
20/03:00am 7.3 3.1 7.3 100 0.0 SSW 19 28 10 15 1027.7 1027.2 1.2
20/02:30am 8.2 4.9 8.2 100 0.0 SSW 15 24 8 13 1027.4 1026.9 1.0
20/02:00am 8.2 5.3 8.2 100 0.0 S 13 22 7 12 1027.2 1026.7 0.8
20/01:30am 8.5 5.7 8.5 100 0.0 S 13 24 7 13 1027.1 1026.6 0.4
20/01:00am 9.3 6.3 9.3 100 0.0 SSW 15 22 8 12 1027.0 1026.4 0.2
20/12:30am 9.5 6.6 9.5 100 0.0 SSW 15 24 8 13 1026.7 1026.2 0.0
20/12:00am 9.9 7.8 9.9 100 0.0 SSW 11 24 6 13 1026.4 1025.9 0.0
 
Date/Time
EDT
Temp
°C
App
Temp
°C
Dew
Point
Rel
Hum
%
Delta-T
°C
Wind Press
QNH
hPa
Press
MSL
hPa
Rain
since 9 am
mm
Dir
 
Spd
km/h
Gust
km/h
Spd
kts
Gust
kts
19/11:30pm 10.1 8.4 9.9 99 0.1 SSW 9 17 5 9 1026.1 1025.6 0.0
19/11:00pm 10.2 8.1 9.9 98 0.2 SSW 11 20 6 11 1026.1 1025.6 0.0
19/10:30pm 10.3 7.8 9.8 97 0.3 SSW 13 20 7 11 1025.8 1025.2 0.0
19/10:00pm 11.3 8.8 9.6 89 0.9 SSW 13 20 7 11 1025.2 1024.7 0.0
19/09:30pm 16.1 13.1 7.6 57 4.4 SSW 13 22 7 12 1024.3 1023.7 0.0
19/09:00pm 19.0 13.9 3.2 35 7.7 W 19 32 10 17 1023.2 1022.6 0.0
19/08:30pm 18.9 12.8 2.7 34 7.8 WNW 24 35 13 19 1023.0 1022.4 0.0
19/08:00pm 19.2 13.0 2.1 32 8.1 WNW 24 35 13 19 1023.0 1022.4 0.0
19/07:30pm 18.9 13.9 1.4 31 8.2 NNW 17 24 9 13 1022.9 1022.3 0.0
19/07:00pm 19.0 15.1 3.2 35 7.7 NNW 13 19 7 10 1022.8 1022.2 0.0

Other Formats:

Comma delimited format used in spreadsheet applications
http://www.bom.gov.au/fwo/IDV60801/IDV60801.94913.axf

JavaScript Object Notation format (JSON) in row-major order
http://www.bom.gov.au/fwo/IDV60801/IDV60801.94913.json